Weather History for Cape Romanzoff, AK

Change the Weather History Date:

Wednesday, July 17, 2013

  Actual Average Record
Temperature  
Mean Temperature 46 °F -  
Max Temperature 49 °F 53 °F 62 °F (2004)
Min Temperature 42 °F 42 °F 41 °F (2001)
Degree Days  
Heating Degree Days 20    
Moisture  
Dew Point 45 °F    
Average Humidity 98    
Maximum Humidity 100    
Minimum Humidity 87    
Precipitation  
Precipitation 0.00 in - - ()
Sea Level Pressure  
Sea Level Pressure 30.10 in    
Wind  
Wind Speed 10 mph (SW)    
Max Wind Speed 16 mph    
Max Gust Speed -    
Visibility 7 miles    
Events Fog , Rain    
Averages and records for this station are not official NWS values.
T = Trace of Precipitation, MM = Missing Value Source: NWS Daily Summary

Daily Weather History Graph

Daily Weather History Graph

Search for Another Location

Airport:

Trip Planner

Search our weather history database for the weather conditions in past years. The results will help you decide how hot, cold, wet, or windy it might be!

Date:

Astronomy

Jul. 17, 2013 Rise Set
Actual Time 5:55 AM AKDT 12:23 AM AKDT
Civil Twilight 4:18 AM AKDT 1:57 AM AKDT
Nautical Twilight Sun does not rise Sun does not rise
Astronomical Twilight Sun does not rise Sun does not rise
Moon 7:00 PM AKDT 1:52 AM AKDT
Length of Visible Light 21h 39m
Length of Day
18h 28m
Waxing Gibbous, 68% of the Moon is Illuminated
Jul 17
Waxing Gibbous
Jul 22
Full
Jul 29
Last Quarter
Aug 6
New
Aug 14
First Quarter

Hourly Weather History & Observations

Time (AKDT) Temp. Windchill Dew Point Humidity Pressure Visibility Wind Dir Wind Speed Gust Speed Precip Events Conditions
12:55 AM 44.4 °F 38.2 °F 43.9 °F 98% 30.10 in 10.0 mi SSW 12.7 mph - N/A   Overcast
1:55 AM 44.4 °F 37.5 °F 43.7 °F 97% 30.10 in 10.0 mi SSW 15.0 mph - N/A   Overcast
2:05 AM 44.6 °F 38.1 °F 44.6 °F 100% 30.10 in 10.0 mi SSW 13.8 mph - N/A Rain Light Rain
2:20 AM 44.6 °F 38.4 °F 44.6 °F 100% 30.10 in 10.0 mi SSW 12.7 mph - N/A Rain Light Rain
2:35 AM 44.6 °F 38.8 °F 44.6 °F 100% 30.10 in 10.0 mi SSW 11.5 mph - N/A   Overcast
2:55 AM 44.1 °F 38.6 °F 43.9 °F 99% 30.09 in 10.0 mi SSW 10.4 mph - N/A   Overcast
3:55 AM 43.5 °F 37.9 °F 43.5 °F 100% 30.09 in 10.0 mi SSW 10.4 mph - N/A   Overcast
4:20 AM 42.8 °F 36.6 °F 42.8 °F 100% 30.09 in 8.0 mi SSW 11.5 mph - N/A   Overcast
4:55 AM 43.3 °F 37.2 °F 43.5 °F 100% 30.09 in 0.8 mi SSW 11.5 mph - N/A   Overcast
5:05 AM 42.8 °F 36.6 °F 42.8 °F 100% 30.09 in 0.5 mi SSW 11.5 mph - N/A Fog Fog
5:20 AM 42.8 °F 37.5 °F 42.8 °F 100% 30.09 in 0.2 mi SSW 9.2 mph - N/A Fog Fog
5:35 AM 42.8 °F 36.2 °F 42.8 °F 100% 30.08 in 0.5 mi SSW 12.7 mph - N/A   Overcast
5:50 AM 42.8 °F 37.5 °F 42.8 °F 100% 30.08 in 9.0 mi South 9.2 mph - N/A   Mostly Cloudy
5:55 AM 42.8 °F 38.0 °F 43.2 °F 100% 30.08 in 6.0 mi SSW 8.1 mph - N/A   Mostly Cloudy
6:35 AM 42.8 °F 38.0 °F 42.8 °F 100% 30.08 in 10.0 mi South 8.1 mph - N/A   Mostly Cloudy
6:55 AM 43.0 °F 36.8 °F 43.2 °F 100% 30.09 in 10.0 mi SSW 11.5 mph - N/A   Overcast
7:55 AM 42.6 °F 37.8 °F 42.8 °F 100% 30.09 in 10.0 mi South 8.1 mph - N/A   Overcast
8:05 AM 42.8 °F 37.5 °F 42.8 °F 100% 30.09 in 0.8 mi SSW 9.2 mph - N/A   Overcast
8:35 AM 42.8 °F 38.0 °F 42.8 °F 100% 30.09 in 0.2 mi SSW 8.1 mph - N/A Fog Patches of Fog
8:55 AM 42.4 °F 38.1 °F 42.6 °F 100% 30.09 in 0.2 mi SW 6.9 mph - N/A Fog Fog
9:20 AM 42.8 °F 38.6 °F 42.8 °F 100% 30.09 in 1.0 mi South 6.9 mph - N/A   Overcast
9:35 AM 42.8 °F 38.0 °F 42.8 °F 100% 30.09 in 0.2 mi SSW 8.1 mph - N/A Fog Fog
9:55 AM 42.6 °F 37.8 °F 43.0 °F 100% 30.09 in 0.2 mi SW 8.1 mph - N/A Fog Fog
10:05 AM 42.8 °F 36.6 °F 42.8 °F 100% 30.10 in 0.5 mi SSW 11.5 mph - N/A Fog Patches of Fog
11:20 AM 42.8 °F 38.0 °F 42.8 °F 100% 30.09 in 0.8 mi SW 8.1 mph - N/A   Mist
11:35 AM 42.8 °F 37.0 °F 42.8 °F 100% 30.10 in 10.0 mi SSW 10.4 mph - N/A   Mostly Cloudy
11:55 AM - - - N/A% 30.10 in 10.0 mi SW 10.4 mph - N/A   Overcast
12:35 PM 44.6 °F 39.7 °F 44.6 °F 100% 30.10 in 10.0 mi SSW 9.2 mph - N/A   Overcast
12:55 PM 45.1 °F 40.3 °F 44.8 °F 99% 30.11 in 10.0 mi SSW 9.2 mph - N/A   Overcast
1:20 PM 46.4 °F 41.1 °F 44.6 °F 93% 30.10 in 10.0 mi SW 11.5 mph - N/A   Mostly Cloudy
1:50 PM 46.4 °F 40.7 °F 46.4 °F 100% 30.11 in 10.0 mi SW 12.7 mph - N/A   Scattered Clouds
1:55 PM 47.5 °F - 45.5 °F 93% 30.11 in 10.0 mi SW 12.7 mph - N/A   Scattered Clouds
2:50 PM 48.2 °F - 46.4 °F 93% 30.11 in 10.0 mi SW 16.1 mph - N/A   Mostly Cloudy
2:55 PM 48.2 °F - 45.7 °F 91% 30.11 in 10.0 mi SW 13.8 mph - N/A   Mostly Cloudy
3:20 PM 48.2 °F - 44.6 °F 87% 30.10 in 10.0 mi SW 12.7 mph - N/A   Mostly Cloudy
3:55 PM 48.7 °F - 46.2 °F 91% 30.11 in 10.0 mi SW 12.7 mph - N/A   Mostly Cloudy
4:35 PM 48.2 °F - 46.4 °F 93% 30.11 in 10.0 mi WSW 8.1 mph - N/A   Mostly Cloudy
4:50 PM 46.4 °F 41.9 °F 46.4 °F 100% 30.12 in 10.0 mi SW 9.2 mph - N/A   Overcast
4:55 PM 46.4 °F 42.4 °F 45.3 °F 96% 30.12 in 10.0 mi SW 8.1 mph - N/A   Overcast
5:35 PM 46.4 °F 42.4 °F 44.6 °F 93% 30.11 in 10.0 mi SW 8.1 mph - N/A   Overcast
5:55 PM 45.9 °F 42.3 °F 45.5 °F 99% 30.11 in 10.0 mi SW 6.9 mph - N/A   Mostly Cloudy
6:50 PM 46.4 °F 43.5 °F 46.4 °F 100% 30.11 in 10.0 mi SW 5.8 mph - N/A   Overcast
6:55 PM 46.6 °F - 45.9 °F 97% 30.11 in 10.0 mi SW 3.5 mph - N/A   Overcast
7:55 PM 47.8 °F - 46.2 °F 94% 30.11 in 10.0 mi SW 6.9 mph - N/A   Mostly Cloudy
8:20 PM 48.2 °F - 46.4 °F 93% 30.10 in 10.0 mi West 3.5 mph - N/A   Scattered Clouds
8:55 PM 49.3 °F - 46.9 °F 92% 30.10 in 10.0 mi Variable 1.2 mph - N/A   Partly Cloudy
9:50 PM 48.2 °F - 46.4 °F 93% 30.09 in 10.0 mi WNW 2.3 mph - N/A   Mostly Cloudy
9:55 PM 48.4 °F - 47.1 °F 95% 30.09 in 10.0 mi Variable 1.2 mph - N/A   Mostly Cloudy
10:55 PM 47.5 °F - 46.9 °F 98% 30.09 in 10.0 mi WSW 2.3 mph - N/A   Overcast
11:20 PM 46.4 °F - 46.4 °F 100% 30.09 in 9.0 mi North 2.3 mph - N/A   Overcast
11:35 PM 46.4 °F 45.2 °F 46.4 °F 100% 30.09 in 0.2 mi NNE 3.5 mph - N/A Fog Fog
11:55 PM 46.6 °F - 46.8 °F 100% 30.10 in 0.2 mi ENE 2.3 mph - N/A Fog Fog